sat.trackr.live / text

‹ back to catalog

STARLINK-5628

NORAD 55466 · 2023-015T

PAYLOAD ACTIVE UNKNOWN

§ Identity

Operator
Country
US
Launch date
2023-02-02
Launch site
AFETR
Launch vehicle
Mass (kg)
RCS (m²)

Purposes: comms

External: N2YO · Heavens-Above · Gunter

§ Orbital elements

Epoch: 2026-05-25T00:22:27.206688Z

Period
94.27 min
Inclination
43.0033°
Eccentricity
0.0001216
Mean motion
15.27577960 rev/d
Perigee alt
482.2 km
Apogee alt
483.9 km
Semi-major
6,861.2 km
B*
9.1569e-6
RAAN
257.7931°
Arg perigee
271.1908°
Mean anomaly
88.8804°
Rev number
18,239

§ Raw data

STARLINK-56281 55466U 23015T   26145.01559267 -.00000010  00000+0  91569-5 0  99962 55466  43.0033 257.7931 0001216 271.1908  88.8804 15.27577960182391

JSON: /api/v1/satellites/55466 · /tle

For live sub-satellite position, see the globe view (requires WebGL).

§ Visibility from observer

Set your observer location to see the next 7 days of passes ≥ 10°. The values pass through the URL so the page stays shareable.

No JS? Fill the form by hand. The geolocation button needs JavaScript.